Location: Unspecified
(0.0000°N, 0.0000°E)
Time: 16:22:30
(UTC+00:00)

Explorer 11/Cluster Stage 4 - Pass Details

Date: 19 November 2019
Orbit: 467 x 1259 km, 28.8° (Epoch: 12 December)

Event Time Altitude Azimuth Distance (km) Brightness Sun altitude
Rises 01:27:52 0° 321° (NW) 4,109 - -58.3°
Reaches altitude 10° 01:31:17 10° 333° (NNW) 3,197 - -57.6°
Maximum altitude 01:37:51 26° 27° (NNE) 2,228 - -56.3°
Drops below altitude 10° 01:44:19 10° 80° (E) 3,151 - -55.0°
Exits shadow 01:45:14 - 84° (E) 3,381 10.1 -54.8°
Sets 01:47:38 0° 92° (E) 4,040 10.7 -54.3°
